User: anonymous   Login
Location: Turtle Rock Observatory
(36.6913°N, 81.9708°W)
Time: 07:42:43
(UTC-04:00)
Language:

Cosmos 1125 Rocket - Orbit

View from above orbital plane
View from above orbital plane
View from above satellite
View from above satellite

Ground track
Ground track

The orbit data is extracted from the following two-line orbital elements,

1 11511U 79078B   17082.72949148 +.00000051 +00000-0 +26106-4 0  9997
2 11511 074.0348 112.3733 0015314 012.4667 347.6862 14.36756480966086
Epoch (UTC): 23 March 2017 17:30:28
Eccentricity: 0.0015314
inclination: 74.0348°
perigee height: 758 km
apogee height: 780 km
right ascension of ascending node: 112.3733°
argument of perigee: 12.4667°
revolutions per day: 14.36756480
mean anomaly at epoch: 347.6862°
orbit number at epoch: 96608

The dashed part of the orbit path shows where the satellite is in the earth's shadow,  

DLR